Weather History for Dayton, OH

Change the Weather History Date:

Tuesday, March 5, 2013

  Actual Average Record
Temperature  
Mean Temperature 34 °F 36 °F  
Max Temperature 37 °F 45 °F 77 °F (1983)
Min Temperature 31 °F 28 °F -1 °F (1978)
Degree Days  
Heating Degree Days 31 29  
Month to date heating degree days 177 147  
Since 1 July heating degree days 4227 4422  
Cooling Degree Days 0 0  
Month to date cooling degree days 0 0  
Year to date cooling degree days 0 0  
Moisture  
Dew Point 30 °F    
Average Humidity 82    
Maximum Humidity 100    
Minimum Humidity 64    
Precipitation  
Precipitation 0.45 in 0.10 in 3.28 in (1897)
Month to date precipitation 0.54 0.44  
Year to date precipitation 4.93 5.39  
Snow  
Snow 2.90 in 0.20 in 4.20 in (1962)
Month to date snowfall 3.2 0.8  
Since 1 July snowfall 24.9 20.1  
Snow Depth T in    
Sea Level Pressure  
Sea Level Pressure 29.79 in    
Wind  
Wind Speed 12 mph (ENE)    
Max Wind Speed 22 mph    
Max Gust Speed 28 mph    
Visibility 6 miles    
Events Rain , Snow    
T = Trace of Precipitation, MM = Missing Value Source: NWS Daily Summary

Daily Weather History Graph

Daily Weather History Graph

Search for Another Location

Airport:

Trip Planner

Search our weather history database for the weather conditions in past years. The results will help you decide how hot, cold, wet, or windy it might be!

Date:

Astronomy

Mar. 05, 2013 Rise Set
Actual Time 7:03 AM EST 6:33 PM EST
Civil Twilight 6:36 AM EST 7:00 PM EST
Nautical Twilight 6:05 AM EST 7:31 PM EST
Astronomical Twilight 5:34 AM EST 8:03 PM EST
Moon 2:14 AM EST (3/5) 12:11 PM EST (3/5)
Length of Visible Light 12h 23m
Length of Day
11h 29m
Last Quarter, 41% of the Moon is Illuminated
Mar 5
Last Quarter
Mar 11
New
Mar 19
First Quarter
Mar 27
Full
Apr 3
Last Quarter

Hourly Weather History & Observations

Time (EST) Temp. Windchill Dew Point Humidity Pressure Visibility Wind Dir Wind Speed Gust Speed Precip Events Conditions
12:21 AM 30.2 °F 21.9 °F 30.2 °F 100% 30.05 in 3.0 mi ENE 9.2 mph - 0.01 in Snow Light Snow
12:56 AM 32.0 °F 24.2 °F 30.0 °F 92% 30.06 in 4.0 mi East 9.2 mph - 0.02 in Snow Light Snow
2:56 AM 32.0 °F 23.0 °F 30.0 °F 92% 30.01 in 7.0 mi East 11.5 mph - 0.00 in   Overcast
3:56 AM 32.0 °F 24.8 °F 30.2 °F 93% 29.97 in 9.0 mi ESE 8.1 mph - N/A   Overcast
4:56 AM 32.0 °F 24.2 °F 30.0 °F 92% 29.99 in 8.0 mi East 9.2 mph - N/A   Overcast
5:41 AM 32.0 °F 22.5 °F 30.2 °F 93% 29.94 in 8.0 mi East 12.7 mph - N/A   Mostly Cloudy
5:56 AM 32.0 °F 23.0 °F 30.0 °F 92% 29.97 in 8.0 mi East 11.5 mph - N/A   Overcast
6:56 AM 30.2 °F 20.2 °F 28.4 °F 93% 29.94 in 8.0 mi ESE 12.7 mph - N/A   Scattered Clouds
7:56 AM 32.0 °F 23.0 °F 28.0 °F 85% 29.97 in 8.0 mi East 11.5 mph - N/A   Overcast
8:56 AM 32.0 °F 21.2 °F 28.0 °F 85% 29.95 in 9.0 mi East 16.1 mph - N/A   Overcast
9:56 AM 33.1 °F 23.0 °F 28.0 °F 82% 29.92 in 10.0 mi East 15.0 mph - N/A   Overcast
10:56 AM 35.1 °F 24.5 °F 27.0 °F 72% 29.88 in 10.0 mi ESE 18.4 mph 21.9 mph N/A   Overcast
11:56 AM 35.1 °F 26.4 °F 26.1 °F 70% 29.86 in 10.0 mi ESE 12.7 mph - N/A   Overcast
12:56 PM 36.0 °F 27.1 °F 27.0 °F 70% 29.81 in 10.0 mi East 13.8 mph - 0.00 in   Overcast
1:56 PM 37.0 °F 28.5 °F 27.0 °F 67% 29.77 in 10.0 mi East 13.8 mph - N/A   Overcast
2:56 PM 37.0 °F 28.1 °F 28.0 °F 70% 29.72 in 10.0 mi East 15.0 mph - N/A   Overcast
3:26 PM 37.4 °F 28.2 °F 28.4 °F 70% 29.68 in 7.0 mi East 16.1 mph - 0.00 in Rain Light Rain
3:56 PM 37.0 °F 28.5 °F 30.0 °F 76% 29.68 in 6.0 mi East 13.8 mph - 0.00 in Rain Light Rain
4:39 PM 35.6 °F 25.9 °F 30.2 °F 81% 29.63 in 2.5 mi East 16.1 mph - 0.00 in Rain Light Rain
4:56 PM 35.1 °F 25.9 °F 32.0 °F 89% 29.65 in 2.5 mi ENE 13.8 mph - 0.01 in Rain Light Rain
5:06 PM 35.6 °F 26.6 °F 32.0 °F 87% 29.62 in 3.0 mi East 13.8 mph - 0.01 in Rain Light Rain
5:56 PM 35.1 °F 26.9 °F 30.9 °F 85% 29.62 in 8.0 mi ENE 11.5 mph - 0.02 in Rain Light Rain
6:56 PM 35.1 °F 32.2 °F 32.0 °F 89% 29.62 in 4.0 mi ENE 3.5 mph - 0.05 in Rain Rain
7:42 PM 33.8 °F 28.6 °F 30.2 °F 87% 29.61 in 1.5 mi NNW 5.8 mph - 0.07 in Snow Light Snow
7:56 PM 33.1 °F 26.9 °F 30.9 °F 92% 29.64 in 1.5 mi NW 6.9 mph - 0.09 in Snow Light Snow
8:12 PM 33.8 °F 27.0 °F 32.0 °F 93% 29.61 in 0.8 mi NW 8.1 mph - 0.03 in Snow Light Snow
8:25 PM 33.8 °F 27.0 °F 32.0 °F 93% 29.61 in 0.8 mi NW 8.1 mph - 0.05 in Snow Light Snow
8:43 PM 33.8 °F 26.4 °F 32.0 °F 93% 29.61 in 0.8 mi NW 9.2 mph - 0.08 in Snow Light Snow
8:56 PM 33.1 °F 24.9 °F 32.0 °F 96% 29.64 in 0.8 mi NW 10.4 mph - 0.10 in Snow Light Snow
9:56 PM 32.0 °F 22.1 °F 32.0 °F 100% 29.64 in 0.8 mi North 13.8 mph - 0.08 in Snow Light Snow
10:56 PM 32.0 °F 23.0 °F 30.9 °F 96% 29.63 in 0.8 mi North 11.5 mph - 0.04 in Snow Light Snow
11:17 PM 30.2 °F 19.3 °F 30.2 °F 100% 29.61 in 0.8 mi North 15.0 mph - 0.01 in Snow Light Snow
11:56 PM 30.9 °F 20.7 °F 30.0 °F 96% 29.64 in 0.8 mi North 13.8 mph - 0.02 in Snow Light Snow